RYR6RR EGSS-LEAM

Flight info

Callsign RYR6RR
Flight time 2h 31m
Altitude 38000
Route NUGBO M183 SILVA Q41 SAM N63 LELNA/N0441F370 DCT NOVAN DCT NENEM P152 BADRU/N0440F390 P152 PPN N10 CJN L27 BLN N865 ESILA
Aircraft B38M/M-SDE1FGHILORVWXY/HB1

Departure

Time 2026-04-23 09:04
Airport London Stansted Airport (EGSS)

Arrival

Time 2026-04-23 11:35
Airport Almería Airport (LEAM)
Time Latitude Longitude Altitude Speed Heading
2026-04-23 08:43 51.89432 0.25809 355 ft 0 kts 159°
2026-04-23 08:54 51.89444 0.25801 364 ft 4 kts 159°
2026-04-23 08:54 51.89468 0.25786 362 ft 4 kts 159°
2026-04-23 08:55 51.89494 0.25774 361 ft 4 kts 179°
2026-04-23 08:55 51.89513 0.25783 362 ft 1 kts 223°
2026-04-23 08:55 51.89528 0.25813 361 ft 4 kts 248°
2026-04-23 08:55 51.89530 0.25852 357 ft 4 kts 291°
2026-04-23 08:56 51.89519 0.25879 362 ft 3 kts 313°
2026-04-23 08:56 51.89507 0.25900 359 ft 0 kts 313°
2026-04-23 08:58 51.89514 0.25888 364 ft 3 kts 313°
2026-04-23 08:58 51.89526 0.25849 358 ft 6 kts 281°
2026-04-23 08:58 51.89504 0.25760 364 ft 12 kts 238°
2026-04-23 08:59 51.89425 0.25650 355 ft 19 kts 222°
2026-04-23 08:59 51.89306 0.25474 357 ft 27 kts 223°
2026-04-23 08:59 51.89162 0.25257 362 ft 29 kts 223°
2026-04-23 08:59 51.89013 0.25034 355 ft 27 kts 222°
2026-04-23 09:00 51.88870 0.24819 358 ft 29 kts 223°
2026-04-23 09:00 51.88744 0.24632 356 ft 26 kts 220°
2026-04-23 09:00 51.88607 0.24422 349 ft 28 kts 224°
2026-04-23 09:00 51.88473 0.24224 349 ft 25 kts 223°
2026-04-23 09:01 51.88359 0.24041 351 ft 23 kts 216°
2026-04-23 09:01 51.88233 0.23859 351 ft 26 kts 222°
2026-04-23 09:01 51.88094 0.23656 338 ft 28 kts 223°
2026-04-23 09:01 51.87948 0.23436 335 ft 29 kts 224°
2026-04-23 09:02 51.87807 0.23225 335 ft 23 kts 222°
2026-04-23 09:02 51.87743 0.23011 338 ft 24 kts 296°
2026-04-23 09:02 51.87857 0.22815 339 ft 25 kts 320°
2026-04-23 09:02 51.87932 0.22656 335 ft 10 kts 309°
2026-04-23 09:03 51.87965 0.22675 336 ft 6 kts 42°
2026-04-23 09:03 51.88051 0.22806 337 ft 47 kts 44°
2026-04-23 09:03 51.88476 0.23442 346 ft 117 kts 43°
2026-04-23 09:03 51.89192 0.24530 538 ft 153 kts 41°
2026-04-23 09:04 51.89963 0.25661 1340 ft 152 kts 43°
2026-04-23 09:04 51.90774 0.26864 2014 ft 164 kts 45°
2026-04-23 09:04 51.91634 0.28162 2640 ft 176 kts 45°
2026-04-23 09:04 51.92798 0.29185 3099 ft 208 kts 17°
2026-04-23 09:05 51.94333 0.29321 3620 ft 238 kts 352°
2026-04-23 09:05 51.95861 0.28143 4140 ft 264 kts 321°
2026-04-23 09:05 51.96930 0.25590 4657 ft 280 kts 288°
2026-04-23 09:05 51.97279 0.22473 4872 ft 282 kts 277°
2026-04-23 09:06 51.97584 0.19318 4961 ft 283 kts 278°
2026-04-23 09:06 51.97909 0.16167 4971 ft 283 kts 279°
2026-04-23 09:06 51.98243 0.13016 5006 ft 284 kts 279°
2026-04-23 09:06 51.98584 0.09850 5004 ft 284 kts 279°
2026-04-23 09:07 51.98881 0.06729 4988 ft 283 kts 270°
2026-04-23 09:07 51.98625 0.03604 5011 ft 279 kts 256°
2026-04-23 09:07 51.98233 0.00499 5010 ft 281 kts 256°
2026-04-23 09:07 51.97840 -0.02605 5004 ft 280 kts 256°
2026-04-23 09:08 51.97448 -0.05660 5006 ft 280 kts 256°
2026-04-23 09:08 51.97045 -0.08776 5234 ft 284 kts 256°
2026-04-23 09:08 51.96641 -0.11906 6212 ft 282 kts 256°
2026-04-23 09:08 51.96232 -0.15046 7135 ft 286 kts 256°
2026-04-23 09:09 51.95817 -0.18233 7996 ft 290 kts 256°
2026-04-23 09:09 51.95401 -0.21411 8885 ft 293 kts 256°
2026-04-23 09:09 51.94976 -0.24654 9756 ft 295 kts 256°
2026-04-23 09:09 51.94545 -0.27935 10541 ft 304 kts 256°
2026-04-23 09:10 51.94090 -0.31387 10911 ft 324 kts 256°
2026-04-23 09:10 51.93090 -0.38963 11643 ft 359 kts 257°
2026-04-23 09:10 51.92558 -0.42982 12187 ft 368 kts 256°
2026-04-23 09:11 51.92201 -0.45669 12753 ft 368 kts 257°
2026-04-23 09:11 51.91657 -0.49750 13448 ft 374 kts 257°
2026-04-23 09:11 51.91102 -0.53901 14151 ft 379 kts 257°
2026-04-23 09:11 51.90539 -0.58110 14814 ft 383 kts 257°
2026-04-23 09:12 51.89969 -0.62348 15504 ft 386 kts 257°
2026-04-23 09:12 51.89395 -0.66608 16179 ft 389 kts 257°
2026-04-23 09:12 51.88813 -0.70913 16780 ft 394 kts 258°
2026-04-23 09:12 51.88222 -0.75266 17390 ft 397 kts 258°
2026-04-23 09:13 51.87633 -0.79594 18075 ft 399 kts 258°
2026-04-23 09:13 51.87032 -0.84007 18696 ft 403 kts 258°
2026-04-23 09:13 51.86422 -0.88472 19189 ft 407 kts 258°
2026-04-23 09:13 51.85606 -0.92865 19707 ft 410 kts 245°
2026-04-23 09:14 51.84040 -0.96710 20282 ft 412 kts 227°
2026-04-23 09:14 51.81822 -0.99665 20773 ft 416 kts 210°
2026-04-23 09:14 51.79150 -1.01516 21177 ft 420 kts 194°
2026-04-23 09:14 51.76283 -1.02499 21715 ft 422 kts 190°
2026-04-23 09:15 51.73414 -1.03354 22152 ft 427 kts 189°
2026-04-23 09:15 51.70467 -1.04173 22651 ft 430 kts 189°
2026-04-23 09:15 51.67492 -1.04967 23105 ft 434 kts 189°
2026-04-23 09:15 51.64493 -1.05747 23573 ft 438 kts 189°
2026-04-23 09:16 51.61469 -1.06609 24015 ft 443 kts 194°
2026-04-23 09:16 51.58485 -1.07922 24419 ft 446 kts 195°
2026-04-23 09:16 51.55514 -1.09191 24838 ft 449 kts 195°
2026-04-23 09:16 51.52478 -1.10457 25232 ft 452 kts 195°
2026-04-23 09:17 51.49423 -1.11714 25652 ft 455 kts 195°
2026-04-23 09:17 51.46340 -1.13028 26077 ft 458 kts 196°
2026-04-23 09:17 51.43244 -1.14357 26464 ft 460 kts 196°
2026-04-23 09:17 51.40138 -1.15683 26856 ft 463 kts 196°
2026-04-23 09:18 51.37010 -1.17016 27250 ft 466 kts 196°
2026-04-23 09:18 51.33866 -1.18353 27624 ft 469 kts 196°
2026-04-23 09:18 51.30740 -1.19681 27984 ft 471 kts 196°
2026-04-23 09:18 51.27547 -1.21035 28350 ft 474 kts 197°
2026-04-23 09:19 51.24341 -1.22392 28725 ft 477 kts 197°
2026-04-23 09:19 51.21158 -1.23738 29090 ft 479 kts 197°
2026-04-23 09:19 51.17927 -1.25101 29456 ft 482 kts 197°
2026-04-23 09:19 51.14670 -1.26475 29800 ft 484 kts 197°
2026-04-23 09:20 51.11401 -1.27851 30148 ft 487 kts 197°
2026-04-23 09:20 51.08112 -1.29234 30483 ft 489 kts 197°
2026-04-23 09:20 51.04814 -1.30618 30796 ft 491 kts 197°
2026-04-23 09:20 51.01515 -1.32000 31188 ft 490 kts 197°
2026-04-23 09:21 50.98215 -1.33382 31592 ft 490 kts 197°
2026-04-23 09:21 50.95003 -1.34972 31961 ft 486 kts 207°
2026-04-23 09:21 50.92001 -1.37384 32378 ft 483 kts 210°
2026-04-23 09:21 50.88982 -1.39762 32719 ft 483 kts 209°
2026-04-23 09:22 50.86013 -1.42114 33115 ft 482 kts 210°
2026-04-23 09:22 50.83028 -1.44489 33642 ft 478 kts 210°
2026-04-23 09:22 50.80064 -1.46847 34077 ft 476 kts 210°
2026-04-23 09:22 50.77101 -1.49201 34444 ft 475 kts 210°
2026-04-23 09:23 50.74137 -1.51551 34748 ft 475 kts 210°
2026-04-23 09:23 50.71186 -1.53889 35044 ft 475 kts 210°
2026-04-23 09:23 50.68234 -1.56224 35338 ft 474 kts 210°
2026-04-23 09:23 50.65287 -1.58553 35633 ft 474 kts 209°
2026-04-23 09:24 50.62331 -1.60886 35919 ft 474 kts 210°
2026-04-23 09:24 50.59423 -1.63176 36183 ft 474 kts 209°
2026-04-23 09:24 50.56470 -1.65499 36432 ft 473 kts 209°
2026-04-23 09:24 50.53520 -1.67817 36696 ft 473 kts 209°
2026-04-23 09:25 50.50575 -1.70128 36940 ft 473 kts 209°
2026-04-23 09:25 50.47634 -1.72431 37186 ft 473 kts 209°
2026-04-23 09:25 50.44688 -1.74736 37426 ft 473 kts 209°
2026-04-23 09:25 50.41740 -1.77039 37661 ft 472 kts 208°
2026-04-23 09:26 50.38798 -1.79335 37890 ft 472 kts 209°
2026-04-23 09:26 50.35850 -1.81631 38108 ft 472 kts 208°
2026-04-23 09:26 50.32904 -1.83924 38316 ft 472 kts 208°
2026-04-23 09:27 50.27084 -1.88441 38372 ft 466 kts 209°
2026-04-23 09:27 50.21281 -1.92935 38363 ft 465 kts 209°
2026-04-23 09:28 50.15502 -1.97397 38365 ft 464 kts 209°
2026-04-23 09:28 50.09718 -2.01851 38354 ft 463 kts 209°
2026-04-23 09:29 50.03945 -2.06286 38352 ft 463 kts 209°
2026-04-23 09:29 49.98134 -2.10648 38343 ft 465 kts 203°
2026-04-23 09:30 49.91923 -2.13600 38320 ft 467 kts 200°
2026-04-23 09:30 49.85738 -2.16501 38328 ft 467 kts 200°
2026-04-23 09:31 49.79519 -2.19399 38325 ft 466 kts 200°
2026-04-23 09:31 49.73314 -2.22282 38322 ft 467 kts 200°
2026-04-23 09:32 49.67094 -2.25165 38300 ft 465 kts 200°
2026-04-23 09:32 49.60915 -2.28020 38315 ft 460 kts 200°
2026-04-23 09:33 49.54819 -2.30831 38324 ft 460 kts 200°
2026-04-23 09:33 49.48677 -2.33654 38288 ft 460 kts 200°
2026-04-23 09:34 49.42526 -2.36475 38298 ft 460 kts 200°
2026-04-23 09:34 49.36428 -2.39264 38295 ft 460 kts 199°
2026-04-23 09:35 49.30278 -2.42070 38294 ft 460 kts 199°
2026-04-23 09:35 49.24171 -2.44849 38290 ft 460 kts 199°
2026-04-23 09:36 49.18020 -2.47640 38292 ft 460 kts 199°
2026-04-23 09:36 49.11867 -2.50426 38290 ft 460 kts 199°
2026-04-23 09:37 49.05760 -2.53183 38290 ft 460 kts 199°
2026-04-23 09:37 48.99614 -2.55950 38281 ft 460 kts 199°
2026-04-23 09:38 48.93469 -2.58711 38279 ft 460 kts 199°
2026-04-23 09:38 48.87317 -2.61467 38274 ft 460 kts 199°
2026-04-23 09:39 48.81210 -2.64196 38271 ft 458 kts 199°
2026-04-23 09:39 48.75093 -2.66922 38265 ft 457 kts 199°
2026-04-23 09:40 48.69019 -2.69623 38262 ft 457 kts 199°
2026-04-23 09:40 48.62902 -2.72336 38263 ft 457 kts 199°
2026-04-23 09:41 48.56793 -2.75038 38253 ft 457 kts 199°
2026-04-23 09:41 48.50722 -2.77717 38249 ft 457 kts 199°
2026-04-23 09:42 48.44618 -2.80403 38241 ft 457 kts 199°
2026-04-23 09:42 48.38513 -2.83085 38235 ft 456 kts 199°
2026-04-23 09:43 48.32398 -2.85763 38233 ft 456 kts 199°
2026-04-23 09:43 48.26340 -2.88409 38230 ft 456 kts 199°
2026-04-23 09:44 48.20229 -2.91073 38226 ft 456 kts 199°
2026-04-23 09:44 48.14135 -2.93720 38215 ft 454 kts 199°
2026-04-23 09:45 48.08103 -2.96337 38214 ft 454 kts 199°
2026-04-23 09:45 48.02026 -2.98964 38220 ft 452 kts 199°
2026-04-23 09:46 47.95995 -3.01570 38203 ft 449 kts 198°
2026-04-23 09:46 47.90034 -3.04134 38198 ft 448 kts 199°
2026-04-23 09:47 47.84018 -3.06717 38192 ft 448 kts 199°
2026-04-23 09:47 47.78047 -3.09276 38186 ft 448 kts 199°
2026-04-23 09:48 47.72043 -3.11842 38184 ft 448 kts 199°
2026-04-23 09:48 47.66071 -3.14388 38182 ft 448 kts 198°
2026-04-23 09:49 47.60077 -3.16938 38184 ft 448 kts 198°
2026-04-23 09:49 47.54111 -3.19469 38178 ft 447 kts 198°
2026-04-23 09:50 47.48117 -3.22007 38180 ft 447 kts 199°
2026-04-23 09:50 47.42129 -3.24536 38168 ft 447 kts 199°
2026-04-23 09:51 47.36173 -3.27044 38167 ft 447 kts 198°
2026-04-23 09:51 47.30195 -3.29558 38172 ft 445 kts 199°
2026-04-23 09:52 47.24270 -3.32042 38169 ft 443 kts 200°
2026-04-23 09:52 47.18361 -3.34514 38159 ft 441 kts 199°
2026-04-23 09:53 47.12448 -3.36984 38157 ft 441 kts 198°
2026-04-23 09:53 47.06568 -3.39430 38164 ft 440 kts 198°
2026-04-23 09:54 47.00657 -3.41887 38164 ft 441 kts 198°
2026-04-23 09:54 46.94788 -3.44320 38148 ft 440 kts 198°
2026-04-23 09:55 46.88884 -3.46761 38150 ft 439 kts 199°
2026-04-23 09:55 46.82992 -3.49194 38152 ft 439 kts 198°
2026-04-23 09:56 46.77099 -3.51621 38149 ft 439 kts 198°
2026-04-23 09:56 46.71245 -3.54024 38143 ft 440 kts 199°
2026-04-23 09:57 46.65349 -3.56442 38138 ft 439 kts 198°
2026-04-23 09:57 46.59458 -3.58852 38145 ft 439 kts 198°
2026-04-23 09:58 46.53600 -3.61243 38144 ft 440 kts 197°
2026-04-23 09:58 46.47703 -3.63645 38135 ft 437 kts 198°
2026-04-23 09:59 46.41897 -3.66004 38131 ft 435 kts 198°
2026-04-23 09:59 46.36073 -3.68365 38129 ft 435 kts 197°
2026-04-23 09:59 46.33113 -3.69316 38070 ft 438 kts 186°
2026-04-23 10:00 46.30105 -3.69130 38072 ft 437 kts 173°
2026-04-23 10:00 46.24053 -3.67795 38093 ft 442 kts 173°
2026-04-23 10:01 46.17992 -3.66337 38119 ft 444 kts 173°
2026-04-23 10:01 46.11909 -3.64821 38123 ft 443 kts 172°
2026-04-23 10:02 46.06844 -3.63557 38118 ft 444 kts 172°
2026-04-23 10:02 46.00792 -3.62050 38114 ft 444 kts 172°
2026-04-23 10:03 45.94687 -3.60532 38111 ft 444 kts 172°
2026-04-23 10:03 45.88602 -3.59023 38108 ft 443 kts 172°
2026-04-23 10:04 45.82561 -3.57527 38117 ft 443 kts 172°
2026-04-23 10:04 45.76467 -3.56023 38118 ft 443 kts 172°
2026-04-23 10:05 45.70423 -3.54534 38118 ft 443 kts 173°
2026-04-23 10:05 45.64341 -3.53038 38113 ft 443 kts 173°
2026-04-23 10:06 45.58248 -3.51544 38106 ft 443 kts 173°
2026-04-23 10:06 45.52199 -3.50063 38091 ft 444 kts 173°
2026-04-23 10:07 45.46084 -3.48569 38109 ft 446 kts 173°
2026-04-23 10:07 45.39981 -3.47082 38110 ft 446 kts 173°
2026-04-23 10:08 45.33851 -3.45592 38111 ft 446 kts 173°
2026-04-23 10:08 45.27733 -3.44107 38105 ft 445 kts 173°
2026-04-23 10:09 45.18592 -3.41895 38109 ft 445 kts 173°
2026-04-23 10:09 45.12478 -3.40420 38096 ft 445 kts 173°
2026-04-23 10:10 45.06383 -3.38952 38101 ft 445 kts 173°
2026-04-23 10:10 45.00265 -3.37482 38100 ft 445 kts 173°
2026-04-23 10:11 44.94138 -3.36014 38088 ft 445 kts 173°
2026-04-23 10:11 44.88055 -3.34558 38099 ft 446 kts 173°
2026-04-23 10:12 44.81926 -3.33095 38096 ft 446 kts 173°
2026-04-23 10:12 44.75835 -3.31644 38096 ft 446 kts 173°
2026-04-23 10:13 44.69713 -3.30189 38094 ft 446 kts 173°
2026-04-23 10:13 44.63620 -3.28744 38091 ft 446 kts 173°
2026-04-23 10:14 44.57498 -3.27295 38092 ft 446 kts 173°
2026-04-23 10:14 44.51365 -3.25847 38086 ft 446 kts 173°
2026-04-23 10:15 44.45238 -3.24403 38082 ft 446 kts 173°
2026-04-23 10:15 44.39142 -3.22969 38084 ft 446 kts 173°
2026-04-23 10:16 44.33000 -3.21528 38077 ft 446 kts 173°
2026-04-23 10:16 44.26897 -3.20099 38079 ft 446 kts 173°
2026-04-23 10:17 44.20753 -3.18662 38076 ft 446 kts 173°
2026-04-23 10:17 44.14655 -3.17240 38070 ft 446 kts 173°
2026-04-23 10:18 44.08518 -3.15807 38069 ft 446 kts 172°
2026-04-23 10:18 44.05569 -3.14562 38046 ft 451 kts 156°
2026-04-23 10:18 44.02904 -3.12230 38081 ft 455 kts 144°
2026-04-23 10:19 43.97885 -3.06777 38051 ft 458 kts 144°
2026-04-23 10:19 43.92898 -3.01222 38066 ft 460 kts 143°
2026-04-23 10:20 43.87945 -2.95665 38060 ft 460 kts 143°
2026-04-23 10:20 43.82958 -2.90076 38062 ft 461 kts 143°
2026-04-23 10:21 43.77999 -2.84532 38053 ft 460 kts 144°
2026-04-23 10:21 43.72997 -2.78947 38059 ft 461 kts 144°
2026-04-23 10:22 43.68039 -2.73417 38064 ft 461 kts 144°
2026-04-23 10:22 43.63037 -2.67857 38056 ft 461 kts 144°
2026-04-23 10:23 43.58026 -2.62299 38052 ft 462 kts 144°
2026-04-23 10:23 43.53029 -2.56768 38053 ft 463 kts 144°
2026-04-23 10:24 43.48012 -2.51228 38053 ft 463 kts 144°
2026-04-23 10:24 43.42985 -2.45689 38049 ft 462 kts 144°
2026-04-23 10:25 43.37950 -2.40152 38041 ft 463 kts 144°
2026-04-23 10:25 43.32942 -2.34658 38047 ft 463 kts 144°
2026-04-23 10:26 43.27905 -2.29144 38047 ft 463 kts 144°
2026-04-23 10:26 43.22851 -2.23625 38061 ft 465 kts 144°
2026-04-23 10:27 43.17784 -2.18102 38061 ft 465 kts 144°
2026-04-23 10:27 43.12751 -2.12626 38061 ft 465 kts 144°
2026-04-23 10:28 43.07675 -2.07121 38079 ft 465 kts 144°
2026-04-23 10:28 43.02594 -2.01622 38086 ft 465 kts 144°
2026-04-23 10:29 42.97545 -1.96170 38089 ft 465 kts 144°
2026-04-23 10:29 42.92450 -1.90678 38090 ft 466 kts 144°
2026-04-23 10:30 42.87344 -1.85182 38147 ft 467 kts 144°
2026-04-23 10:30 42.82265 -1.79725 38134 ft 467 kts 144°
2026-04-23 10:31 42.76885 -1.74874 38129 ft 458 kts 163°
2026-04-23 10:31 42.73819 -1.73859 38169 ft 450 kts 179°
2026-04-23 10:31 42.70740 -1.73859 38142 ft 446 kts 190°
2026-04-23 10:32 42.67739 -1.74772 38149 ft 439 kts 203°
2026-04-23 10:32 42.64906 -1.76299 38145 ft 439 kts 206°
2026-04-23 10:32 42.59336 -1.79735 38138 ft 438 kts 209°
2026-04-23 10:33 42.53854 -1.83336 38137 ft 436 kts 209°
2026-04-23 10:33 42.48428 -1.86958 38118 ft 437 kts 210°
2026-04-23 10:34 42.42975 -1.90599 38118 ft 436 kts 210°
2026-04-23 10:34 42.37564 -1.94206 38106 ft 434 kts 209°
2026-04-23 10:35 42.32141 -1.97819 38122 ft 433 kts 209°
2026-04-23 10:35 42.26768 -2.01390 38120 ft 433 kts 209°
2026-04-23 10:36 42.21342 -2.04981 38116 ft 433 kts 209°
2026-04-23 10:36 42.15950 -2.08545 38106 ft 433 kts 209°
2026-04-23 10:37 42.10574 -2.12094 38112 ft 432 kts 209°
2026-04-23 10:37 42.05162 -2.15659 38100 ft 432 kts 209°
2026-04-23 10:38 41.99755 -2.19215 38109 ft 432 kts 209°
2026-04-23 10:38 41.94372 -2.22749 38099 ft 432 kts 209°
2026-04-23 10:39 41.88968 -2.26289 38106 ft 432 kts 209°
2026-04-23 10:39 41.83596 -2.29801 38095 ft 431 kts 209°
2026-04-23 10:40 41.78192 -2.33329 38087 ft 430 kts 209°
2026-04-23 10:40 41.72803 -2.36839 38093 ft 430 kts 209°
2026-04-23 10:41 41.67455 -2.40316 38094 ft 429 kts 209°
2026-04-23 10:41 41.62073 -2.43810 38092 ft 429 kts 209°
2026-04-23 10:42 41.56728 -2.47273 38084 ft 429 kts 209°
2026-04-23 10:42 41.51343 -2.50755 38085 ft 428 kts 208°
2026-04-23 10:43 41.45993 -2.54206 38082 ft 426 kts 208°
2026-04-23 10:43 41.40675 -2.57632 38084 ft 426 kts 208°
2026-04-23 10:44 41.35325 -2.61068 38078 ft 426 kts 207°
2026-04-23 10:44 41.32507 -2.62308 38048 ft 431 kts 192°
2026-04-23 10:44 41.29491 -2.62493 38088 ft 436 kts 181°
2026-04-23 10:45 41.23401 -2.62122 38077 ft 438 kts 180°
2026-04-23 10:45 41.17318 -2.61627 38079 ft 438 kts 180°
2026-04-23 10:46 41.11253 -2.61092 38075 ft 439 kts 180°
2026-04-23 10:46 41.05155 -2.60549 38079 ft 439 kts 180°
2026-04-23 10:47 40.99053 -2.60007 38080 ft 439 kts 180°
2026-04-23 10:47 40.92961 -2.59456 38077 ft 439 kts 180°
2026-04-23 10:48 40.86904 -2.58909 38067 ft 439 kts 179°
2026-04-23 10:48 40.80812 -2.58360 38075 ft 438 kts 179°
2026-04-23 10:49 40.74742 -2.57814 38086 ft 438 kts 179°
2026-04-23 10:49 40.68656 -2.57269 38079 ft 438 kts 179°
2026-04-23 10:50 40.62564 -2.56723 38080 ft 438 kts 179°
2026-04-23 10:50 40.56519 -2.56182 38079 ft 438 kts 179°
2026-04-23 10:51 40.50416 -2.55638 38075 ft 438 kts 179°
2026-04-23 10:51 40.44320 -2.55148 38070 ft 436 kts 184°
2026-04-23 10:52 40.41380 -2.55605 38059 ft 429 kts 197°
2026-04-23 10:52 40.38570 -2.56878 38092 ft 426 kts 205°
2026-04-23 10:52 40.33017 -2.59692 38087 ft 428 kts 203°
2026-04-23 10:53 40.27460 -2.62412 38074 ft 428 kts 203°
2026-04-23 10:53 40.21870 -2.65134 38070 ft 428 kts 203°
2026-04-23 10:54 40.16325 -2.67827 38101 ft 427 kts 202°
2026-04-23 10:54 40.10765 -2.70524 38088 ft 425 kts 202°
2026-04-23 10:55 40.05215 -2.73211 38092 ft 425 kts 202°
2026-04-23 10:55 39.99659 -2.75896 38081 ft 425 kts 202°
2026-04-23 10:56 39.94146 -2.78556 38089 ft 424 kts 202°
2026-04-23 10:56 39.88595 -2.81229 38095 ft 425 kts 202°
2026-04-23 10:57 39.83077 -2.83882 38093 ft 424 kts 202°
2026-04-23 10:57 39.77532 -2.86543 38096 ft 425 kts 202°
2026-04-23 10:58 39.71986 -2.89201 38092 ft 423 kts 202°
2026-04-23 10:58 39.67385 -2.91401 38087 ft 423 kts 202°
2026-04-23 10:59 39.60942 -2.94478 38083 ft 423 kts 202°
2026-04-23 10:59 39.56341 -2.96672 38083 ft 423 kts 202°
2026-04-23 11:00 39.50805 -2.99307 38076 ft 423 kts 202°
2026-04-23 11:00 39.45272 -3.01937 38083 ft 423 kts 202°
2026-04-23 11:01 39.39742 -3.04560 38074 ft 423 kts 202°
2026-04-23 11:01 39.34245 -3.07163 38058 ft 421 kts 202°
2026-04-23 11:02 39.28732 -3.09770 38050 ft 422 kts 202°
2026-04-23 11:02 39.23204 -3.12379 38050 ft 422 kts 202°
2026-04-23 11:03 39.17718 -3.14964 38051 ft 422 kts 202°
2026-04-23 11:03 39.12190 -3.17565 38042 ft 422 kts 202°
2026-04-23 11:04 39.06669 -3.20157 38029 ft 422 kts 202°
2026-04-23 11:04 39.01163 -3.22739 38032 ft 422 kts 202°
2026-04-23 11:05 38.95634 -3.25327 38027 ft 422 kts 202°
2026-04-23 11:05 38.90103 -3.27911 38024 ft 422 kts 202°
2026-04-23 11:06 38.81845 -3.31762 38016 ft 422 kts 202°
2026-04-23 11:07 38.76305 -3.34340 38017 ft 422 kts 202°
2026-04-23 11:07 38.70813 -3.36892 38017 ft 422 kts 202°
2026-04-23 11:08 38.65302 -3.39448 38005 ft 422 kts 202°
2026-04-23 11:08 38.59768 -3.42011 38001 ft 422 kts 202°
2026-04-23 11:09 38.54244 -3.44565 38016 ft 421 kts 202°
2026-04-23 11:09 38.48775 -3.47089 38003 ft 420 kts 202°
2026-04-23 11:10 38.43268 -3.49627 38002 ft 420 kts 202°
2026-04-23 11:10 38.37772 -3.52156 38002 ft 419 kts 202°
2026-04-23 11:11 38.32305 -3.54667 37996 ft 420 kts 202°
2026-04-23 11:11 38.26793 -3.57194 37989 ft 420 kts 202°
2026-04-23 11:12 38.21289 -3.59714 37994 ft 420 kts 202°
2026-04-23 11:12 38.15770 -3.62072 37978 ft 422 kts 192°
2026-04-23 11:13 38.09904 -3.62427 37964 ft 426 kts 184°
2026-04-23 11:13 38.03968 -3.62552 37995 ft 426 kts 184°
2026-04-23 11:14 37.98029 -3.62615 37992 ft 426 kts 184°
2026-04-23 11:14 37.92125 -3.62665 37988 ft 426 kts 184°
2026-04-23 11:15 37.86192 -3.62715 37996 ft 426 kts 184°
2026-04-23 11:15 37.83211 -3.62739 37730 ft 424 kts 182°
2026-04-23 11:15 37.80252 -3.62756 36917 ft 426 kts 182°
2026-04-23 11:15 37.77289 -3.62779 36242 ft 425 kts 182°
2026-04-23 11:16 37.74332 -3.62804 35575 ft 425 kts 182°
2026-04-23 11:16 37.71408 -3.62829 34871 ft 426 kts 182°
2026-04-23 11:16 37.68433 -3.62853 34115 ft 428 kts 181°
2026-04-23 11:16 37.65442 -3.62876 33242 ft 431 kts 181°
2026-04-23 11:17 37.62426 -3.62899 32341 ft 434 kts 181°
2026-04-23 11:17 37.59405 -3.62923 31556 ft 435 kts 181°
2026-04-23 11:17 37.56379 -3.62945 30870 ft 433 kts 181°
2026-04-23 11:17 37.53365 -3.62968 30105 ft 433 kts 181°
2026-04-23 11:18 37.50334 -3.62992 29087 ft 437 kts 181°
2026-04-23 11:18 37.47264 -3.63015 28122 ft 442 kts 181°
2026-04-23 11:18 37.44186 -3.62590 27229 ft 449 kts 167°
2026-04-23 11:18 37.41313 -3.61178 26588 ft 453 kts 153°
2026-04-23 11:19 37.38732 -3.58866 26067 ft 456 kts 139°
2026-04-23 11:19 37.36664 -3.55868 25407 ft 454 kts 125°
2026-04-23 11:19 37.35104 -3.52430 24682 ft 452 kts 120°
2026-04-23 11:19 37.33634 -3.48946 23989 ft 449 kts 119°
2026-04-23 11:20 37.32200 -3.45464 23301 ft 446 kts 119°
2026-04-23 11:20 37.30790 -3.41994 22520 ft 443 kts 118°
2026-04-23 11:20 37.29402 -3.38557 21872 ft 438 kts 118°
2026-04-23 11:20 37.28036 -3.35165 21242 ft 433 kts 118°
2026-04-23 11:21 37.26701 -3.31850 20602 ft 429 kts 118°
2026-04-23 11:21 37.25358 -3.28512 19966 ft 426 kts 118°
2026-04-23 11:21 37.24051 -3.25177 19242 ft 425 kts 118°
2026-04-23 11:21 37.22747 -3.21855 18620 ft 422 kts 118°
2026-04-23 11:22 37.21447 -3.18550 17957 ft 420 kts 118°
2026-04-23 11:22 37.20174 -3.15320 17301 ft 416 kts 118°
2026-04-23 11:22 37.18882 -3.12045 16677 ft 412 kts 119°
2026-04-23 11:22 37.17634 -3.08882 16098 ft 407 kts 119°
2026-04-23 11:23 37.16385 -3.05722 15753 ft 396 kts 119°
2026-04-23 11:23 37.15179 -3.02670 15484 ft 385 kts 120°
2026-04-23 11:23 37.14002 -2.99700 15270 ft 374 kts 119°
2026-04-23 11:23 37.12859 -2.96815 15067 ft 362 kts 120°
2026-04-23 11:24 37.11766 -2.94059 14892 ft 352 kts 121°
2026-04-23 11:24 37.10690 -2.91350 14733 ft 341 kts 121°
2026-04-23 11:24 37.09645 -2.88721 14555 ft 331 kts 121°
2026-04-23 11:24 37.08638 -2.86182 14340 ft 319 kts 120°
2026-04-23 11:25 37.07691 -2.83795 14321 ft 301 kts 121°
2026-04-23 11:25 37.06755 -2.81488 14197 ft 293 kts 124°
2026-04-23 11:25 37.05430 -2.79580 13549 ft 293 kts 148°
2026-04-23 11:25 37.03593 -2.78541 12996 ft 290 kts 170°
2026-04-23 11:26 37.01590 -2.78437 12560 ft 290 kts 186°
2026-04-23 11:26 36.99603 -2.78736 12083 ft 293 kts 188°
2026-04-23 11:26 36.97565 -2.79093 11524 ft 298 kts 188°
2026-04-23 11:26 36.95499 -2.79451 10954 ft 301 kts 183°
2026-04-23 11:27 36.93418 -2.79062 10403 ft 308 kts 163°
2026-04-23 11:27 36.91364 -2.78256 9887 ft 311 kts 164°
2026-04-23 11:27 36.89265 -2.77457 9255 ft 318 kts 164°
2026-04-23 11:27 36.87132 -2.76645 8676 ft 322 kts 164°
2026-04-23 11:28 36.84986 -2.75835 7868 ft 331 kts 164°
2026-04-23 11:28 36.82769 -2.74996 6990 ft 332 kts 164°
2026-04-23 11:28 36.80568 -2.74170 6298 ft 327 kts 163°
2026-04-23 11:28 36.78464 -2.73178 5596 ft 318 kts 148°
2026-04-23 11:29 36.76970 -2.71281 5118 ft 301 kts 117°
2026-04-23 11:29 36.76527 -2.68849 4819 ft 281 kts 86°
2026-04-23 11:29 36.76989 -2.66596 4591 ft 264 kts 73°
2026-04-23 11:29 36.77541 -2.64465 4276 ft 252 kts 73°
2026-04-23 11:30 36.78062 -2.62453 4014 ft 237 kts 73°
2026-04-23 11:30 36.78561 -2.60546 3690 ft 226 kts 72°
2026-04-23 11:30 36.79020 -2.58708 3352 ft 217 kts 71°
2026-04-23 11:30 36.79451 -2.56991 3040 ft 200 kts 70°
2026-04-23 11:31 36.79814 -2.55397 2752 ft 180 kts 72°
2026-04-23 11:31 36.80126 -2.53978 2491 ft 158 kts 72°
2026-04-23 11:31 36.80463 -2.52766 2231 ft 135 kts 69°
2026-04-23 11:31 36.80747 -2.51723 2040 ft 128 kts 70°
2026-04-23 11:32 36.81027 -2.50644 1826 ft 126 kts 71°
2026-04-23 11:32 36.81289 -2.49605 1682 ft 125 kts 72°
2026-04-23 11:32 36.81517 -2.48564 1529 ft 123 kts 71°
2026-04-23 11:32 36.81771 -2.47546 1464 ft 124 kts 70°
2026-04-23 11:33 36.82047 -2.46546 1306 ft 124 kts 71°
2026-04-23 11:33 36.82299 -2.45512 1133 ft 125 kts 74°
2026-04-23 11:33 36.82529 -2.44477 946 ft 120 kts 71°
2026-04-23 11:33 36.82803 -2.43486 764 ft 122 kts 75°
2026-04-23 11:34 36.83045 -2.42507 632 ft 119 kts 73°
2026-04-23 11:34 36.83287 -2.41451 562 ft 128 kts 72°
2026-04-23 11:34 36.83567 -2.40413 386 ft 125 kts 76°
2026-04-23 11:34 36.83802 -2.39423 206 ft 116 kts 72°
2026-04-23 11:35 36.84042 -2.38455 88 ft 117 kts 72°
2026-04-23 11:35 36.84251 -2.37600 62 ft 79 kts 72°
2026-04-23 11:35 36.84378 -2.37161 62 ft 24 kts 55°
2026-04-23 11:35 36.84480 -2.37019 66 ft 23 kts 43°
2026-04-23 11:36 36.84546 -2.36942 63 ft 3 kts 39°
2026-04-23 11:36 36.84568 -2.36923 68 ft 5 kts 43°
2026-04-23 11:36 36.84615 -2.36900 68 ft 11 kts 340°
2026-04-23 11:36 36.84644 -2.36996 68 ft 15 kts 254°
2026-04-23 11:37 36.84609 -2.37157 67 ft 23 kts 254°
2026-04-23 11:37 36.84571 -2.37306 67 ft 14 kts 254°
2026-04-23 11:37 36.84604 -2.37349 69 ft 9 kts 341°
2026-04-23 11:37 36.84640 -2.37361 63 ft 2 kts
2026-04-23 11:38 36.84645 -2.37346 72 ft 2 kts 102°
2026-04-23 11:38 36.84634 -2.37334 64 ft 2 kts 126°
2026-04-23 11:38 36.84633 -2.37333 64 ft 0 kts 121°